Weather in Quepos

Costa Rica     9°25′31″N   84°09′42″W
temp.,
°C
wind,
m/s
gust,
m/s
humid.,
%
clouds,
%
prec.,
mm/h
press.,
hPa
HPBL,
m
17 april, sat
sat1700:00+24se2386100 13.3 1012192
03:00+24nnw2285100 0.0 1009113
06:00+24wnw1183100 0.0 1010125
09:00+28ssw1171100 0.1 1012619
12:00+29ssw4369100 1.8 1010814
15:00+26se0186100 9.4 1008169
18:00+23ne3589100 21.2 1010142
21:00+24nne2281100 0.8 101271
18 april, sun
sun1800:00+24ene228198 0.8 101194
03:00+24ne117994 0.0 101079
06:00+24ne1180100 0.0 101173
09:00+28ssw1164100 0.0 1013588
12:00+29ssw3368100 0.7 1011960
15:00+27wsw237980 3.9 1009676
18:00+24ene2390100 12.6 1011144
21:00+23ne2392100 6.4 1013127
19 april, mon
mon1900:00+24nne2288100 7.2 1012108
03:00+24nnw1182100 0.0 100964
06:00+25nnw1281100 0.0 101082
09:00+28sse2269100 0.0 1012532
12:00+28sse3370100 0.9 1011899
15:00+28s217096 1.3 1009776
18:00+26se1181100 2.1 101079
21:00+25ne118598 0.6 101291
20 april, tue
tue2000:00+24ne218585 1.3 101248
03:00+24ene118414 0.4 101091
06:00+24ne118259 0.4 101291
09:00+29s216729 0.0 1013758
12:00+28ssw3271100 0.5 1012674
15:00+27s1176100 3.1 1010529
18:00+25ene2285100 7.3 101182
21:00+25ene228599 1.1 101373
21 april, wed
wed2100:00+25n228495 1.1 101177
03:00+24n1183100 0.0 101091
06:00+24ne228190 0.1 101180
09:00+28sse226863 0.1 1012649
12:00+29s326770 0.4 1011980
15:00+28ssw227196 2.8 1009652
18:00+26nne1183100 7.9 1010142
21:00+25ne1186100 1.3 101253